Date,TemperatureHighF,TemperatureAvgF,TemperatureLowF,DewpointHighF,DewpointAvgF,DewpointLowF,HumidityHigh,HumidityAvg,HumidityLow,PressureMaxIn,PressureMinIn,WindSpeedMaxMPH,WindSpeedAvgMPH,GustSpeedMaxMPH,PrecipitationSumIn
2013-1-1,46,43,40,46,38,23,98,83,47,30.18,30.03,4,0,8,0.56
2013-1-2,46,42,39,45,40,36,98,92,83,30.20,29.99,3,0,6,0.10
2013-1-3,43,37,26,39,34,25,97,90,77,30.34,30.15,5,0,8,0.00
2013-1-4,45,31,20,30,23,19,97,75,45,30.41,30.28,4,0,6,0.00
2013-1-5,47,34,20,33,24,19,94,70,37,30.43,30.27,6,1,8,0.01
2013-1-6,56,39,29,41,34,27,96,82,33,30.27,30.09,6,0,10,0.01
2013-1-7,52,37,25,31,27,23,95,71,35,30.46,30.25,3,0,5,0.00
2013-1-8,53,36,22,44,31,20,96,85,63,30.50,30.39,4,0,8,0.00
2013-1-9,58,51,43,55,50,41,98,93,85,30.55,30.44,4,0,6,0.00
2013-1-10,64,52,43,55,48,42,99,88,64,30.59,30.42,2,0,4,0.02
2013-1-11,58,54,52,57,53,51,99,98,96,30.42,30.23,3,0,5,0.78
2013-1-12,70,62,58,62,59,57,98,90,73,30.26,30.20,5,1,8,0.03
2013-1-13,63,60,57,59,58,55,97,91,83,30.23,30.16,7,2,13,0.14
2013-1-14,62,59,48,61,58,47,98,97,92,30.24,30.14,7,1,11,1.40
2013-1-15,55,50,46,55,50,46,99,99,97,30.23,30.11,2,0,2,2.05
2013-1-16,56,52,46,55,52,46,100,98,93,30.10,30.03,3,0,7,0.57
2013-1-17,53,45,35,53,44,30,99,96,79,30.26,29.84,4,1,12,2.59
2013-1-18,50,36,27,31,25,17,95,67,31,30.54,30.27,4,0,9,0.00
2013-1-19,51,36,23,35,27,22,98,75,42,30.52,30.23,7,1,12,0.01
2013-1-20,61,41,27,37,30,24,94,68,30,30.22,30.10,5,0,7,0.00
2013-1-21,54,37,24,33,24,15,97,65,29,30.17,30.04,8,1,17,0.00
2013-1-22,37,28,22,21,11,2,81,50,28,30.27,30.05,5,1,8,0.00
2013-1-23,49,32,16,27,18,8,87,59,37,30.34,30.10,7,1,15,0.00
2013-1-24,45,37,24,31,18,6,78,48,26,30.46,30.04,8,2,16,0.00
2013-1-25,33,26,21,33,18,5,97,75,44,30.48,30.11,6,1,11,0.00
2013-1-26,43,34,26,35,32,26,98,91,69,30.39,30.14,1,0,3,0.02
2013-1-27,47,34,25,34,29,24,98,83,59,30.54,30.39,5,1,7,0.00
2013-1-28,60,46,38,49,40,30,95,81,66,30.49,30.32,11,2,13,0.00
2013-1-29,66,51,34,58,48,33,98,89,64,30.34,30.11,9,1,15,0.11
2013-1-30,62,57,44,60,55,42,98,93,85,30.10,29.58,14,4,23,3.24
2013-1-31,44,37,31,41,22,17,93,57,38,30.09,29.65,18,4,27,0.03